Regional Weather Roundup
Issued by NWS Goodland, KS

Home | Current Version | Previous Version | Graphics & Text | Print | Product List | Glossary On
Versions: 1 2 3 4 5 6 7 8 9 10 11 12 13 14 15 16 17 18 19 20 21 22 23 24 25 26 27 28 29 30 31 32 33 34 35 36 37 38 39 40 41 42 43 44 45 46 47 48 49 50
000
ASUS43 KGLD 280208
RWRGLD

GOODLAND FORECAST AREA HOURLY WEATHER ROUNDUP
NATIONAL WEATHER SERVICE GOODLAND KS
800 PM MDT TUE JUN 27 2017

...OFFICIAL OBSERVATIONS...

CITY           SKY/WX    TMP DP  RH WIND       PRES   REMARKS
GOODLAND KS    CLOUDY    71  57  61 SE13      29.73F
HILL CITY KS   MOCLDY    88  60  38 S16G24    29.68R
IMPERIAL NEB   CLOUDY    80  48  32 NE9       29.70F
MCCOOK NEB     MOCLDY    87  58  37 S17G25    29.64R
AKRON CO       CLOUDY    83  39  21 S12       29.77S
BURLINGTON CO  CLOUDY    77  51  40 S14G20    29.75F
LIMON CO       CLOUDY    74  48  39 S12       29.81F
$$

...UNOFFICIAL OBSERVATIONS...

CITY           SKY/WX    TMP DP  RH WIND       PRES   REMARKS
LENORA KS        N/A     87  32  14 MISG        N/A
NORTON KS      CLEAR     86  48  26 SE13G21   29.67S
SHARON SPRINGS   N/A     85  53  33 S16G24      N/A
TRIBUNE KS     CLOUDY    88  52  29 S25G32    29.73R
TRENTON NEB      N/A     83  32  16 CALM        N/A
KIT CARSON CO    N/A     76  54  45 MISG        N/A
YUMA CO        FAIR      77  46  33 CALM      29.74S
$$




USA.gov is the U.S. government's official web portal to all federal, state and local government web resources and services.